Location: Davidschlag
(48.4333°N, 14.2833°E)
Time: 09:25:48
(UTC+00:00)

STARLINK-36 - Pass Details

Date: 27 February 2020
Orbit: 529 x 530 km, 53.0° (Epoch: 10 April)

Event Time Altitude Azimuth Distance (km) Brightness Sun altitude
Rises 17:46:07 0° 277° (W) 2,669 9.2 -11.3°
Reaches altitude 10° 17:48:25 10° 285° (WNW) 1,779 7.6 -11.7°
Maximum altitude 17:52:16 42° 357° (N) 761 4.3 -12.3°
Enters shadow 17:55:04 17° 63° (ENE) 1,391 5.1 -12.8°
